Location: Arroyo de San Miguel
(40.9167°N, 4.6667°W)
Time: 14:53:08
(UTC+00:00)

Okean-O - Pass Details

Date: 19 May 2025
Orbit: 628 x 631 km, 98.0° (Epoch: 17 June)

Event Time Altitude Azimuth Distance (km) Brightness Sun altitude
Exits shadow 21:41:01 18° 205° (SSW) 1,545 4.3 -19.4°
Maximum altitude 21:43:44 36° 262° (W) 1,009 3.9 -19.7°
Drops below altitude 10° 21:47:47 10° 330° (NNW) 2,019 6.4 -20.2°
Sets 21:50:08 0° 339° (NNW) 2,931 7.4 -20.4°
